Flag Weather past 2 weeks in Leuven, Belgium

Now
48 °F

Partly cloudy.


Feels Like: 45 °F
Forecast: 36 / 45 °F
Wind: 7 mph from Northwest

Location: Brussels National Airport

Current Time: Nov 24, 2014 at 2:33:23 AM

Latest Report: Nov 24, 2014 at 1:50 AM


Visibility: 4 mi

Pressure: 30.09 "Hg

Humidity: 94%

Dew point: 46 °F

Location of LeuvenLocation

Historic Weather in Leuven — Graph

°F

Leuven temperature yesterday

Maximum temperature yesterday: 59 °F (at 1:20 PM)
Minimum temperature yesterday: 48 °F (at 4:50 AM)
Average temperature yesterday: 53 °F

Past Weeks' High & Low Weather Summary

 TemperatureHumidityPressure
High59 °F (Nov 22, 2:50 PM)100% (Nov 21, 4:20 AM)30.30 "Hg (Nov 21, 4:20 AM)
Low32 °F (Nov 21, 7:20 AM)67% (Nov 10, 12:20 PM)29.50 "Hg (Nov 12, 1:20 AM)
Average47 °F85%29.82 "Hg
* Reported Nov 9 1:20 AM — Nov 24 1:20 AM, Leuven, Weather by CustomWeather, © 2014

Note: Actual official high and low records may vary slightly from our data, if they occured in-between our weather recording intervals... More about our weather records

Advertising

Leuven weather history for previous 24 hours

 ConditionsComfort  
Time TempWeatherWind HumidityBarometerVisibility
1:20 AM
Nov 24
48 °FPartly cloudy.10 mph94%30.09 "Hg3 mi
12:50 AM48 °FPartly cloudy.7 mph94%30.09 "Hg5 mi
12:20 AM50 °FPartly cloudy.9 mph88%30.07 "HgN/A
11:50 PM
Nov 23
50 °FPartly cloudy.14 mph88%30.04 "Hg3 mi
11:20 PM50 °FPartly cloudy.13 mph94%30.04 "Hg2 mi
10:50 PM54 °FPartly cloudy.12 mph88%30.01 "Hg2 mi
10:20 PM55 °FPartly cloudy.8 mph82%29.98 "HgN/A
9:50 PM55 °FLight rain. Partly cloudy.9 mph82%29.98 "HgN/A
9:20 PM55 °FLight rain. Passing clouds.7 mph82%29.98 "HgN/A
8:50 PM55 °FPassing clouds.6 mph82%29.98 "HgN/A
8:20 PM54 °FClear.5 mph82%29.95 "Hg10 mi
7:50 PM54 °FPassing clouds.5 mph88%29.95 "HgN/A
7:20 PM54 °FClear.6 mph88%29.95 "Hg10 mi
6:50 PM54 °FClear.6 mph82%29.95 "Hg10 mi
6:20 PM54 °FClear.6 mph82%29.95 "Hg10 mi
5:50 PM55 °FClear.5 mph82%29.95 "Hg10 mi
5:20 PM55 °FClear.6 mph82%29.95 "Hg10 mi
4:50 PM57 °FClear.3 mph77%29.95 "Hg10 mi
4:20 PM57 °FSunny.5 mph82%29.95 "Hg10 mi
3:50 PM57 °FSunny.7 mph82%29.95 "Hg10 mi
3:20 PM59 °FPassing clouds.3 mph77%29.95 "HgN/A
2:50 PM59 °FSunny.5 mph77%29.95 "Hg10 mi
2:20 PM59 °FSunny.6 mph77%29.98 "Hg10 mi
1:50 PM59 °FSunny.8 mph77%29.98 "Hg10 mi
1:20 PM59 °FSunny.9 mph72%29.98 "Hg10 mi
12:50 PM57 °FSunny.9 mph77%30.01 "Hg10 mi
12:20 PM57 °FSunny.9 mph77%30.01 "Hg10 mi
11:50 AM57 °FSunny.8 mph77%30.01 "Hg10 mi
11:20 AM55 °FSunny.9 mph82%30.01 "Hg10 mi
10:50 AM54 °FSunny.10 mph82%30.01 "Hg10 mi
10:20 AM54 °FSunny.10 mph82%30.01 "Hg10 mi
9:50 AM52 °FSunny.9 mph82%30.01 "Hg10 mi
9:20 AM50 °FSunny.10 mph88%30.01 "Hg10 mi
8:50 AM52 °FSunny.9 mph82%30.01 "Hg10 mi
8:20 AM50 °FSunny.10 mph88%30.01 "Hg10 mi
7:50 AM50 °FClear.8 mph88%30.01 "Hg10 mi
7:20 AM50 °FClear.8 mph88%30.04 "Hg10 mi
6:50 AM50 °FClear.8 mph88%30.01 "Hg10 mi
6:20 AM50 °FClear.8 mph88%30.01 "Hg10 mi
5:50 AM50 °FClear.7 mph88%30.01 "Hg10 mi
5:20 AM50 °FClear.6 mph88%30.01 "Hg10 mi
4:50 AM48 °FClear.6 mph94%30.04 "Hg10 mi
4:20 AM50 °FClear.6 mph88%30.04 "Hg10 mi
3:50 AM50 °FClear.5 mph88%30.04 "Hg10 mi
3:20 AM52 °FClear.6 mph82%30.04 "Hg10 mi
2:50 AM52 °FLight rain. Clear.8 mph88%30.04 "HgN/A
2:20 AM52 °FClear.8 mph82%30.04 "Hg10 mi
Weather by CustomWeather, © 2014

See weather overviewHow to use our weather pages